| time (UTC) | temp F | wind direction | speed knots | gust knots | rain 1hr in | rain 24hr in | rain mn in | humidity % | barometer mb |
| 20260506134205 | 52 | 9 | 0.0 | 13.0 | 0.00 | 0.29 | 0.22 | 89 | 1008.0 |
| 20260506133727 | 52 | 19 | 0.9 | 13.0 | 0.00 | 0.29 | 0.22 | 88 | 1007.9 |
| 20260506133207 | 52 | 9 | 0.0 | 13.0 | 0.00 | 0.29 | 0.22 | 88 | 1007.9 |
| 20260506132706 | 52 | 319 | 0.0 | 13.0 | 0.00 | 0.29 | 0.22 | 89 | 1008.0 |
| 20260506132221 | 52 | 276 | 0.0 | 13.0 | 0.00 | 0.29 | 0.22 | 88 | 1007.9 |
| 20260506131708 | 52 | 18 | 2.6 | 13.0 | 0.00 | 0.29 | 0.22 | 89 | 1007.9 |
| 20260506130707 | 52 | 59 | 0.0 | 13.0 | 0.00 | 0.29 | 0.22 | 89 | 1007.7 |
| 20260506125709 | 52 | 10 | 4.3 | 13.0 | 0.00 | 0.29 | 0.22 | 89 | 1007.6 |
| 20260506125207 | 52 | 45 | 0.0 | 13.0 | 0.00 | 0.29 | 0.22 | 90 | 1007.5 |
| 20260506124706 | 52 | 45 | 0.0 | 13.0 | 0.00 | 0.29 | 0.22 | 90 | 1007.5 |
| 20260506124207 | 52 | 15 | 3.5 | 13.0 | 0.00 | 0.29 | 0.22 | 89 | 1007.5 |
| 20260506123707 | 52 | 37 | 2.6 | 13.0 | 0.00 | 0.29 | 0.22 | 89 | 1007.4 |
| 20260506122710 | 53 | 5 | 0.9 | 13.0 | 0.00 | 0.29 | 0.22 | 90 | 1007.4 |
| 20260506122222 | 53 | 5 | 0.0 | 13.0 | 0.00 | 0.29 | 0.22 | 89 | 1007.4 |
| 20260506122206 | 53 | 0 | 0.9 | 13.0 | 0.00 | 0.29 | 0.22 | 89 | 1007.5 |
| 20260506121708 | 53 | 59 | 0.9 | 13.0 | 0.00 | 0.29 | 0.22 | 90 | 1007.5 |
| 20260506121206 | 53 | 0 | 0.9 | 13.0 | 0.00 | 0.29 | 0.22 | 91 | 1007.5 |
| 20260506120722 | 53 | 290 | 0.0 | 13.0 | 0.00 | 0.29 | 0.22 | 91 | 1007.4 |
| 20260506115707 | 53 | 290 | 1.7 | 13.0 | 0.01 | 0.29 | 0.22 | 90 | 1007.3 |
| 20260506115658 | 53 | 286 | 0.9 | 13.0 | 0.01 | 0.29 | 0.22 | 90 | 1007.4 |
| 20260506114206 | 54 | 5 | 1.7 | 13.0 | 0.01 | 0.29 | 0.22 | 90 | 1007.2 |
| 20260506114157 | 54 | 5 | 1.7 | 13.0 | 0.01 | 0.29 | 0.22 | 90 | 1007.2 |
| 20260506112706 | 54 | 0 | 0.0 | 13.0 | 0.02 | 0.29 | 0.22 | 89 | 1007.2 |
| 20260506112657 | 54 | 0 | 0.0 | 13.0 | 0.02 | 0.29 | 0.22 | 89 | 1007.2 |
| 20260506111157 | 54 | 9 | 1.7 | 13.0 | 0.02 | 0.29 | 0.22 | 92 | 1007.1 |
| 20260506110707 | 54 | 35 | 0.9 | 13.0 | 0.02 | 0.29 | 0.22 | 92 | 1007.0 |
| 20260506110207 | 54 | 123 | 0.0 | 13.0 | 0.02 | 0.29 | 0.22 | 92 | 1007.1 |
| 20260506105707 | 54 | 122 | 0.0 | 13.0 | 0.02 | 0.28 | 0.21 | 93 | 1007.0 |
| 20260506105657 | 54 | 123 | 0.9 | 13.0 | 0.02 | 0.28 | 0.21 | 93 | 1007.0 |
| 20260506104207 | 53 | 213 | 0.0 | 13.0 | 0.03 | 0.28 | 0.21 | 93 | 1006.9 |
| 20260506104158 | 53 | 213 | 0.0 | 13.0 | 0.03 | 0.28 | 0.21 | 93 | 1006.9 |
| 20260506103706 | 53 | 213 | 0.0 | 13.0 | 0.04 | 0.28 | 0.21 | 93 | 1006.9 |
| 20260506102706 | 53 | 212 | 0.0 | 13.0 | 0.03 | 0.28 | 0.20 | 93 | 1006.8 |
| 20260506102656 | 53 | 212 | 0.0 | 13.0 | 0.03 | 0.28 | 0.20 | 93 | 1006.8 |
| 20260506102207 | 53 | 213 | 0.0 | 13.0 | 0.03 | 0.28 | 0.20 | 93 | 1006.9 |
| 20260506101707 | 53 | 213 | 0.0 | 13.0 | 0.03 | 0.28 | 0.20 | 93 | 1006.8 |
| 20260506101207 | 53 | 213 | 0.0 | 13.0 | 0.03 | 0.28 | 0.20 | 93 | 1006.8 |
| 20260506101157 | 53 | 213 | 0.0 | 13.0 | 0.03 | 0.28 | 0.20 | 93 | 1006.8 |
| 20260506095658 | 53 | 211 | 0.0 | 13.0 | 0.02 | 0.27 | 0.20 | 93 | 1006.7 |
| 20260506094708 | 54 | 211 | 0.0 | 13.0 | 0.02 | 0.27 | 0.20 | 93 | 1006.6 |
| 20260506094206 | 54 | 211 | 0.0 | 13.0 | 0.01 | 0.25 | 0.18 | 92 | 1006.6 |
| 20260506094156 | 54 | 211 | 0.0 | 13.0 | 0.01 | 0.25 | 0.18 | 92 | 1006.6 |
| 20260506092656 | 55 | 205 | 0.0 | 13.0 | 0.00 | 0.24 | 0.17 | 92 | 1006.4 |
| 20260506092207 | 55 | 194 | 0.0 | 13.0 | 0.00 | 0.24 | 0.17 | 92 | 1006.3 |
| 20260506091707 | 55 | 232 | 1.7 | 13.0 | 0.00 | 0.24 | 0.17 | 92 | 1006.3 |
| 20260506091157 | 54 | 232 | 2.6 | 13.0 | 0.00 | 0.24 | 0.17 | 92 | 1006.3 |
| 20260506085706 | 54 | 229 | 0.9 | 13.0 | 0.00 | 0.24 | 0.17 | 93 | 1006.2 |
| 20260506085656 | 54 | 227 | 0.0 | 13.0 | 0.00 | 0.24 | 0.17 | 93 | 1006.2 |
| 20260506084707 | 54 | 242 | 1.7 | 13.0 | 0.00 | 0.24 | 0.17 | 93 | 1006.2 |
| 20260506084206 | 53 | 241 | 1.7 | 13.0 | 0.00 | 0.24 | 0.17 | 93 | 1006.2 |
| 20260506084157 | 53 | 241 | 1.7 | 13.0 | 0.00 | 0.24 | 0.17 | 93 | 1006.2 |
| 20260506083205 | 53 | 237 | 4.3 | 13.0 | 0.00 | 0.24 | 0.17 | 93 | 1006.2 |
| 20260506082657 | 54 | 218 | 4.3 | 13.0 | 0.00 | 0.24 | 0.17 | 94 | 1006.1 |
| 20260506082206 | 53 | 241 | 0.9 | 13.0 | 0.00 | 0.24 | 0.17 | 94 | 1006.2 |
| 20260506081706 | 53 | 250 | 3.5 | 13.0 | 0.00 | 0.24 | 0.17 | 93 | 1006.2 |